sat.trackr.live / text

‹ back to catalog

K-HERO

NORAD 66660 · 2025-274L

PAYLOAD ACTIVE UNKNOWN

§ Identity

Operator
Country
SKOR
Launch date
2025-11-26
Launch site
NSC
Launch vehicle
Mass (kg)
RCS (m²)

External: N2YO · Heavens-Above · Gunter

§ Orbital elements

Epoch: 2026-09-18T13:11:46.947552Z

Period
96.37 min
Inclination
97.7491°
Eccentricity
0.0015416
Mean motion
14.94248246 rev/d
Perigee alt
574.0 km
Apogee alt
595.4 km
Semi-major
6,962.8 km
B*
1.6893e-4
RAAN
189.7520°
Arg perigee
69.9156°
Mean anomaly
290.3722°
Rev number
4,417

§ Raw data

K-HERO1 66660U 25274L   26261.54984893  .00001759  00000+0  16893-3 0  99922 66660  97.7491 189.7520 0015416  69.9156 290.3722 14.94248246 44173

JSON: /api/v1/satellites/66660 · /tle

For live sub-satellite position, see the globe view (requires WebGL).

§ Visibility from observer

Set your observer location to see the next 7 days of passes ≥ 10°. The values pass through the URL so the page stays shareable.

No JS? Fill the form by hand. The geolocation button needs JavaScript.